Time,TemperatureF,DewpointF,PressureIn,WindDirection,WindDirectionDegrees,WindSpeedMPH,WindSpeedGustMPH,Humidity,HourlyPrecipIn,Conditions,Clouds,dailyrainin,SoftwareType,DateUTC
2013-06-16 00:00:00,65.4,58.7,29.98,North,1,0.0,0.0,79,0.00,BKN,SKC,0.00,WeatherDisplay:10.37,2013-06-15 22:00:00,
2013-06-16 00:10:00,65.3,59.0,29.98,North,1,0.0,0.0,80,0.00,BKN,SKC,0.00,WeatherDisplay:10.37,2013-06-15 22:10:00,
2013-06-16 00:20:00,65.1,58.8,29.98,North,1,0.0,0.0,80,0.00,BKN,SKC,0.00,WeatherDisplay:10.37,2013-06-15 22:20:00,
2013-06-16 00:30:00,64.8,58.8,29.99,North,1,0.0,0.0,81,0.00,BKN,SKC,0.00,WeatherDisplay:10.37,2013-06-15 22:30:00,
2013-06-16 00:40:00,64.4,58.4,29.99,North,1,0.0,0.0,81,0.00,BKN,SKC,0.00,WeatherDisplay:10.37,2013-06-15 22:40:00,
2013-06-16 00:50:00,64.0,58.1,29.99,North,1,0.0,0.0,81,0.00,BKN,SKC,0.00,WeatherDisplay:10.37,2013-06-15 22:50:00,
2013-06-16 01:00:00,63.8,58.2,29.98,North,1,0.0,0.0,82,0.00,BKN,SKC,0.00,WeatherDisplay:10.37,2013-06-15 23:00:00,
2013-06-16 01:10:00,63.5,58.2,29.99,North,1,0.0,0.0,83,0.00,BKN,SKC,0.00,WeatherDisplay:10.37,2013-06-15 23:10:00,
2013-06-16 01:20:00,63.3,58.1,29.98,North,1,0.0,0.0,83,0.00,BKN,SKC,0.00,WeatherDisplay:10.37,2013-06-15 23:20:00,
2013-06-16 01:30:00,63.1,58.2,29.98,North,1,0.0,0.0,84,0.00,BKN,SKC,0.00,WeatherDisplay:10.37,2013-06-15 23:30:00,
2013-06-16 01:40:00,62.6,57.7,29.98,North,1,0.0,0.0,84,0.00,BKN,SKC,0.00,WeatherDisplay:10.37,2013-06-15 23:40:00,
2013-06-16 01:50:00,62.4,57.8,29.98,North,1,0.0,0.0,85,0.00,BKN,SKC,0.00,WeatherDisplay:10.37,2013-06-15 23:50:00,
2013-06-16 02:00:00,61.9,57.3,29.98,North,1,0.0,0.0,85,0.00,BKN,SKC,0.00,WeatherDisplay:10.37,2013-06-16 00:00:00,
2013-06-16 02:10:00,61.5,57.0,29.98,North,1,0.0,0.0,85,0.00,BKN,SKC,0.00,WeatherDisplay:10.37,2013-06-16 00:10:00,
2013-06-16 02:20:00,61.3,57.1,29.98,North,1,0.0,0.0,86,0.00,BKN,SKC,0.00,WeatherDisplay:10.37,2013-06-16 00:20:00,
2013-06-16 02:30:00,61.2,56.9,29.98,North,1,0.0,0.0,86,0.00,BKN,SKC,0.00,WeatherDisplay:10.37,2013-06-16 00:30:00,
2013-06-16 02:40:00,61.3,57.4,29.97,North,1,0.0,0.0,87,0.00,BKN,SKC,0.00,WeatherDisplay:10.37,2013-06-16 00:40:00,
2013-06-16 02:50:00,61.0,57.1,29.98,North,1,0.0,0.0,87,0.00,BKN,SKC,0.00,WeatherDisplay:10.37,2013-06-16 00:50:00,
2013-06-16 03:00:00,60.6,56.7,29.98,North,1,0.0,0.0,87,0.00,BKN,SKC,0.00,WeatherDisplay:10.37,2013-06-16 01:00:00,
2013-06-16 03:10:00,60.4,56.6,29.99,North,1,0.0,0.0,87,0.00,BKN,SKC,0.00,WeatherDisplay:10.37,2013-06-16 01:10:00,
2013-06-16 03:20:00,60.1,56.2,29.99,North,1,0.0,0.0,87,0.00,BKN,SKC,0.00,WeatherDisplay:10.37,2013-06-16 01:20:00,
2013-06-16 03:30:00,60.0,56.4,29.99,North,1,0.0,0.0,88,0.00,BKN,SKC,0.00,WeatherDisplay:10.37,2013-06-16 01:30:00,
2013-06-16 03:40:00,59.5,56.0,29.98,North,1,0.0,0.0,88,0.00,BKN,SKC,0.00,WeatherDisplay:10.37,2013-06-16 01:40:00,
2013-06-16 03:50:00,59.4,55.8,29.99,North,1,0.0,0.0,88,0.00,BKN,SKC,0.00,WeatherDisplay:10.37,2013-06-16 01:50:00,
2013-06-16 04:00:00,59.5,56.0,29.99,North,1,0.0,0.0,88,0.00,BKN,SKC,0.00,WeatherDisplay:10.37,2013-06-16 02:00:00,
2013-06-16 04:10:00,59.5,56.0,29.99,North,1,0.0,0.0,88,0.00,BKN,SKC,0.00,WeatherDisplay:10.37,2013-06-16 02:10:00,
2013-06-16 04:20:00,59.4,55.8,29.99,North,1,0.0,0.0,88,0.00,BKN,SKC,0.00,WeatherDisplay:10.37,2013-06-16 02:20:00,
2013-06-16 04:30:00,59.4,56.1,29.99,North,1,0.0,0.0,89,0.00,BKN,SKC,0.00,WeatherDisplay:10.37,2013-06-16 02:30:00,
2013-06-16 04:40:00,59.2,56.0,29.99,North,1,0.0,0.0,89,0.00,BKN,SKC,0.00,WeatherDisplay:10.37,2013-06-16 02:40:00,
2013-06-16 04:50:00,59.2,55.9,30.00,North,1,0.0,0.0,89,0.00,BKN,SKC,0.00,WeatherDisplay:10.37,2013-06-16 02:50:00,
2013-06-16 05:00:00,59.0,55.8,29.99,North,1,0.0,0.0,89,0.00,BKN,SKC,0.00,WeatherDisplay:10.37,2013-06-16 03:00:00,
2013-06-16 05:10:00,59.2,55.9,30.00,North,1,0.0,0.0,89,0.00,BKN,SKC,0.00,WeatherDisplay:10.37,2013-06-16 03:10:00,
2013-06-16 05:20:00,59.4,56.4,30.00,North,1,0.0,0.0,90,0.00,BKN,SKC,0.00,WeatherDisplay:10.37,2013-06-16 03:20:00,
2013-06-16 05:30:00,59.7,56.8,30.00,North,1,0.0,0.0,90,0.00,BKN,SKC,0.00,WeatherDisplay:10.37,2013-06-16 03:30:00,
2013-06-16 05:40:00,59.9,57.0,30.01,North,1,0.0,0.0,90,0.00,BKN,SKC,0.00,WeatherDisplay:10.37,2013-06-16 03:40:00,
2013-06-16 05:50:00,60.4,57.4,30.01,North,1,0.0,0.0,90,0.00,BKN,SKC,0.00,WeatherDisplay:10.37,2013-06-16 03:50:00,
2013-06-16 06:00:00,61.7,58.8,30.01,North,1,0.0,0.0,90,0.00,BKN,SKC,0.00,WeatherDisplay:10.37,2013-06-16 04:00:00,
2013-06-16 06:10:00,63.3,60.0,30.01,North,1,0.0,0.0,89,0.00,BKN,SKC,0.00,WeatherDisplay:10.37,2013-06-16 04:10:00,
2013-06-16 06:20:00,64.9,60.9,30.01,North,1,0.0,0.0,87,0.00,BKN,SKC,0.00,WeatherDisplay:10.37,2013-06-16 04:20:00,
2013-06-16 06:30:00,66.4,61.5,30.02,North,1,0.0,0.0,84,0.00,BKN,SKC,0.00,WeatherDisplay:10.37,2013-06-16 04:30:00,
2013-06-16 06:40:00,68.4,62.3,30.02,North,1,0.0,0.0,81,0.00,BKN,SKC,0.00,WeatherDisplay:10.37,2013-06-16 04:40:00,
2013-06-16 06:50:00,68.0,61.9,30.02,North,1,0.0,0.0,81,0.00,BKN,SKC,0.00,WeatherDisplay:10.37,2013-06-16 04:50:00,
2013-06-16 07:00:00,68.5,62.5,30.02,North,1,0.0,0.0,81,0.00,BKN,SKC,0.00,WeatherDisplay:10.37,2013-06-16 05:00:00,
2013-06-16 07:10:00,70.6,64.1,30.02,North,1,0.0,0.0,80,0.00,BKN,SKC,0.00,WeatherDisplay:10.37,2013-06-16 05:10:00,
2013-06-16 07:20:00,72.3,64.7,30.03,North,1,0.0,0.0,77,0.00,BKN,SKC,0.00,WeatherDisplay:10.37,2013-06-16 05:20:00,
2013-06-16 07:30:00,73.4,64.6,30.03,North,1,0.0,0.0,74,0.00,BKN,SKC,0.00,WeatherDisplay:10.37,2013-06-16 05:30:00,
2013-06-16 07:40:00,74.3,64.7,30.03,North,1,0.0,0.0,72,0.00,BKN,SKC,0.00,WeatherDisplay:10.37,2013-06-16 05:40:00,
2013-06-16 07:50:00,75.0,65.0,30.03,North,1,0.0,0.0,71,0.00,BKN,SKC,0.00,WeatherDisplay:10.37,2013-06-16 05:50:00,
2013-06-16 08:00:00,75.7,64.4,30.03,North,1,0.0,0.0,68,0.00,BKN,SKC,0.00,WeatherDisplay:10.37,2013-06-16 06:00:00,
2013-06-16 08:10:00,77.2,64.9,30.03,North,1,0.0,0.0,66,0.00,BKN,SKC,0.00,WeatherDisplay:10.37,2013-06-16 06:10:00,
2013-06-16 08:20:00,78.4,64.8,30.03,North,1,0.0,0.0,63,0.00,BKN,SKC,0.00,WeatherDisplay:10.37,2013-06-16 06:20:00,
2013-06-16 08:30:00,79.0,64.4,30.03,North,1,0.0,0.0,61,0.00,BKN,SKC,0.00,WeatherDisplay:10.37,2013-06-16 06:30:00,
2013-06-16 08:40:00,79.5,63.4,30.03,North,1,0.0,0.0,58,0.00,BKN,SKC,0.00,WeatherDisplay:10.37,2013-06-16 06:40:00,
2013-06-16 08:50:00,79.7,62.6,30.03,North,1,0.0,0.0,56,0.00,BKN,SKC,0.00,WeatherDisplay:10.37,2013-06-16 06:50:00,
2013-06-16 09:00:00,80.1,63.5,30.03,North,1,0.0,0.0,57,0.00,BKN,SKC,0.00,WeatherDisplay:10.37,2013-06-16 07:00:00,
2013-06-16 09:10:00,80.8,62.6,30.03,North,1,0.0,0.0,54,0.00,BKN,SKC,0.00,WeatherDisplay:10.37,2013-06-16 07:10:00,
2013-06-16 09:20:00,81.0,61.7,30.03,North,1,0.0,0.0,52,0.00,BKN,SKC,0.00,WeatherDisplay:10.37,2013-06-16 07:20:00,
2013-06-16 09:30:00,81.0,61.2,30.03,North,1,0.0,0.0,51,0.00,BKN,SKC,0.00,WeatherDisplay:10.37,2013-06-16 07:30:00,
2013-06-16 09:40:00,81.7,61.2,30.03,North,1,0.0,0.0,50,0.00,BKN,SKC,0.00,WeatherDisplay:10.37,2013-06-16 07:40:00,
2013-06-16 09:50:00,82.2,61.2,30.03,North,1,0.0,0.0,49,0.00,BKN,SKC,0.00,WeatherDisplay:10.37,2013-06-16 07:50:00,
2013-06-16 10:00:00,82.8,61.6,30.03,North,1,0.0,0.0,49,0.00,BKN,SKC,0.00,WeatherDisplay:10.37,2013-06-16 08:00:00,
2013-06-16 10:10:00,83.5,61.7,30.03,North,1,0.0,0.0,48,0.00,BKN,SKC,0.00,WeatherDisplay:10.37,2013-06-16 08:10:00,
2013-06-16 10:20:00,84.0,62.2,30.04,North,1,0.0,0.0,48,0.00,BKN,SKC,0.00,WeatherDisplay:10.37,2013-06-16 08:20:00,
2013-06-16 10:30:00,84.0,61.6,30.04,North,1,0.0,0.0,47,0.00,BKN,SKC,0.00,WeatherDisplay:10.37,2013-06-16 08:30:00,
2013-06-16 10:40:00,84.0,61.0,30.04,North,1,0.0,0.0,46,0.00,BKN,SKC,0.00,WeatherDisplay:10.37,2013-06-16 08:40:00,
2013-06-16 10:50:00,84.4,61.3,30.04,North,1,0.0,0.0,46,0.00,BKN,SKC,0.00,WeatherDisplay:10.37,2013-06-16 08:50:00,
2013-06-16 11:00:00,84.7,63.5,30.05,North,1,0.0,0.0,49,0.00,BKN,SKC,0.00,WeatherDisplay:10.37,2013-06-16 09:00:00,
2013-06-16 11:10:00,84.9,62.4,30.04,North,1,0.0,0.0,47,0.00,BKN,SKC,0.00,WeatherDisplay:10.37,2013-06-16 09:10:00,
2013-06-16 11:20:00,84.9,61.8,30.04,North,1,0.0,0.0,46,0.00,BKN,SKC,0.00,WeatherDisplay:10.37,2013-06-16 09:20:00,
2013-06-16 11:30:00,85.8,62.6,30.04,North,1,0.0,0.0,46,0.00,BKN,SKC,0.00,WeatherDisplay:10.37,2013-06-16 09:30:00,
2013-06-16 11:40:00,85.3,62.8,30.04,North,1,0.0,0.0,47,0.00,BKN,SKC,0.00,WeatherDisplay:10.37,2013-06-16 09:40:00,
2013-06-16 11:50:00,85.6,63.1,30.04,North,1,0.0,0.0,47,0.00,BKN,SKC,0.00,WeatherDisplay:10.37,2013-06-16 09:50:00,
2013-06-16 12:00:00,85.7,63.2,30.04,North,1,0.0,0.0,47,0.00,BKN,SKC,0.00,WeatherDisplay:10.37,2013-06-16 10:00:00,
2013-06-16 12:10:00,86.2,63.6,30.04,North,1,0.0,0.0,47,0.00,BKN,SKC,0.00,WeatherDisplay:10.37,2013-06-16 10:10:00,
2013-06-16 12:20:00,86.2,63.0,30.04,North,1,0.0,0.0,46,0.00,BKN,SKC,0.00,WeatherDisplay:10.37,2013-06-16 10:20:00,
2013-06-16 12:30:00,87.1,64.4,30.04,North,1,0.0,0.0,47,0.00,BKN,SKC,0.00,WeatherDisplay:10.37,2013-06-16 10:30:00,
2013-06-16 12:40:00,86.9,63.6,30.03,North,1,0.0,0.0,46,0.00,BKN,SKC,0.00,WeatherDisplay:10.37,2013-06-16 10:40:00,
2013-06-16 12:50:00,86.7,62.8,30.03,North,1,0.0,0.0,45,0.00,BKN,SKC,0.00,WeatherDisplay:10.37,2013-06-16 10:50:00,
2013-06-16 13:00:00,87.1,63.8,30.03,North,1,0.0,0.0,46,0.00,BKN,SKC,0.00,WeatherDisplay:10.37,2013-06-16 11:00:00,
2013-06-16 13:10:00,86.9,62.4,30.03,North,1,0.0,0.0,44,0.00,BKN,SKC,0.00,WeatherDisplay:10.37,2013-06-16 11:10:00,
2013-06-16 13:20:00,86.4,61.9,30.03,North,1,0.0,0.0,44,0.00,BKN,SKC,0.00,WeatherDisplay:10.37,2013-06-16 11:20:00,
2013-06-16 13:30:00,86.9,63.0,30.02,North,1,0.0,0.0,45,0.00,BKN,SKC,0.00,WeatherDisplay:10.37,2013-06-16 11:30:00,
2013-06-16 13:40:00,87.4,62.8,30.01,North,1,0.0,0.0,44,0.00,BKN,SKC,0.00,WeatherDisplay:10.37,2013-06-16 11:40:00,
2013-06-16 13:50:00,86.7,62.2,30.02,North,1,0.0,0.0,44,0.00,BKN,SKC,0.00,WeatherDisplay:10.37,2013-06-16 11:50:00,
2013-06-16 14:00:00,87.4,62.8,30.02,North,1,0.0,0.0,44,0.00,BKN,SKC,0.00,WeatherDisplay:10.37,2013-06-16 12:00:00,
2013-06-16 14:10:00,87.6,62.4,30.01,North,1,0.0,0.0,43,0.00,BKN,SKC,0.00,WeatherDisplay:10.37,2013-06-16 12:10:00,
2013-06-16 14:20:00,87.6,62.4,30.01,North,1,0.0,0.0,43,0.00,BKN,SKC,0.00,WeatherDisplay:10.37,2013-06-16 12:20:00,
2013-06-16 14:30:00,88.0,63.3,30.01,North,1,0.0,0.0,44,0.00,BKN,SKC,0.00,WeatherDisplay:10.37,2013-06-16 12:30:00,
2013-06-16 14:40:00,86.9,61.7,30.01,North,1,0.0,0.0,43,0.00,BKN,SKC,0.00,WeatherDisplay:10.37,2013-06-16 12:40:00,
2013-06-16 14:50:00,87.8,63.2,30.01,North,1,0.0,0.0,44,0.00,BKN,SKC,0.00,WeatherDisplay:10.37,2013-06-16 12:50:00,
2013-06-16 15:00:00,88.2,62.8,30.00,North,1,0.0,0.0,43,0.00,BKN,SKC,0.00,WeatherDisplay:10.37,2013-06-16 13:00:00,
2013-06-16 15:10:00,88.3,63.0,30.00,North,1,0.0,0.0,43,0.00,BKN,SKC,0.00,WeatherDisplay:10.37,2013-06-16 13:10:00,
2013-06-16 15:20:00,88.6,63.2,30.00,North,1,0.0,0.0,43,0.00,BKN,SKC,0.00,WeatherDisplay:10.37,2013-06-16 13:20:00,
2013-06-16 15:30:00,88.9,62.8,30.00,North,1,0.0,0.0,42,0.00,BKN,SKC,0.00,WeatherDisplay:10.37,2013-06-16 13:30:00,
2013-06-16 15:40:00,89.8,62.9,30.00,North,1,0.0,0.0,41,0.00,BKN,SKC,0.00,WeatherDisplay:10.37,2013-06-16 13:40:00,
2013-06-16 15:50:00,89.4,62.6,29.99,North,1,0.0,0.0,41,0.00,BKN,SKC,0.00,WeatherDisplay:10.37,2013-06-16 13:50:00,
2013-06-16 16:00:00,88.0,62.0,30.00,North,1,0.0,0.0,42,0.00,BKN,SKC,0.00,WeatherDisplay:10.37,2013-06-16 14:00:00,
2013-06-16 16:10:00,86.9,61.7,30.00,North,1,0.0,0.0,43,0.00,BKN,SKC,0.00,WeatherDisplay:10.37,2013-06-16 14:10:00,
2013-06-16 16:20:00,85.8,61.4,30.00,North,1,0.0,0.0,44,0.00,BKN,SKC,0.00,WeatherDisplay:10.37,2013-06-16 14:20:00,
2013-06-16 16:30:00,85.3,61.5,29.99,North,1,0.0,0.0,45,0.00,BKN,SKC,0.00,WeatherDisplay:10.37,2013-06-16 14:30:00,
2013-06-16 16:40:00,85.1,62.6,29.99,North,1,0.0,0.0,47,0.00,BKN,SKC,0.00,WeatherDisplay:10.37,2013-06-16 14:40:00,
2013-06-16 16:50:00,85.1,62.6,29.99,North,1,0.0,0.0,47,0.00,BKN,SKC,0.00,WeatherDisplay:10.37,2013-06-16 14:50:00,
2013-06-16 17:00:00,84.9,63.6,29.99,North,1,0.0,0.0,49,0.00,BKN,SKC,0.00,WeatherDisplay:10.37,2013-06-16 15:00:00,
2013-06-16 17:10:00,84.7,62.9,29.99,North,1,0.0,0.0,48,0.00,BKN,SKC,0.00,WeatherDisplay:10.37,2013-06-16 15:10:00,
2013-06-16 17:20:00,84.4,63.7,29.99,North,1,0.0,0.0,50,0.00,BKN,SKC,0.00,WeatherDisplay:10.37,2013-06-16 15:20:00,
2013-06-16 17:30:00,84.0,65.0,30.00,North,1,0.0,0.0,53,0.00,BKN,SKC,0.00,WeatherDisplay:10.37,2013-06-16 15:30:00,
2013-06-16 17:40:00,83.5,65.1,30.00,North,1,0.0,0.0,54,0.00,BKN,SKC,0.00,WeatherDisplay:10.37,2013-06-16 15:40:00,
2013-06-16 17:50:00,83.1,65.3,30.00,North,1,0.0,0.0,55,0.00,BKN,SKC,0.00,WeatherDisplay:10.37,2013-06-16 15:50:00,
2013-06-16 18:00:00,82.9,65.1,30.00,North,1,0.0,0.0,55,0.00,BKN,SKC,0.00,WeatherDisplay:10.37,2013-06-16 16:00:00,
2013-06-16 18:10:00,83.1,64.8,30.00,North,1,0.0,0.0,54,0.00,BKN,SKC,0.00,WeatherDisplay:10.37,2013-06-16 16:10:00,
2013-06-16 18:20:00,83.8,64.9,29.99,North,1,0.0,0.0,53,0.00,BKN,SKC,0.00,WeatherDisplay:10.37,2013-06-16 16:20:00,
2013-06-16 18:30:00,84.4,64.8,29.99,North,1,0.0,0.0,52,0.00,BKN,SKC,0.00,WeatherDisplay:10.37,2013-06-16 16:30:00,
2013-06-16 18:40:00,84.4,64.3,30.00,North,1,0.0,0.0,51,0.00,BKN,SKC,0.00,WeatherDisplay:10.37,2013-06-16 16:40:00,
2013-06-16 18:50:00,84.1,63.5,29.99,North,1,0.0,0.0,50,0.00,BKN,SKC,0.00,WeatherDisplay:10.37,2013-06-16 16:50:00,
2013-06-16 19:00:00,83.8,63.8,29.99,North,1,0.0,0.0,51,0.00,BKN,SKC,0.00,WeatherDisplay:10.37,2013-06-16 17:00:00,
2013-06-16 19:10:00,83.1,64.2,29.99,North,1,0.0,0.0,53,0.00,BKN,SKC,0.00,WeatherDisplay:10.37,2013-06-16 17:10:00,
2013-06-16 19:20:00,82.6,64.3,29.99,North,1,0.0,0.0,54,0.00,BKN,SKC,0.00,WeatherDisplay:10.37,2013-06-16 17:20:00,
2013-06-16 19:30:00,82.2,65.0,29.99,North,1,0.0,0.0,56,0.00,BKN,SKC,0.00,WeatherDisplay:10.37,2013-06-16 17:30:00,
2013-06-16 19:40:00,81.7,65.0,30.00,North,1,0.0,0.0,57,0.00,BKN,SKC,0.00,WeatherDisplay:10.37,2013-06-16 17:40:00,
2013-06-16 19:50:00,81.1,64.5,30.00,North,1,0.0,0.0,57,0.00,BKN,SKC,0.00,WeatherDisplay:10.37,2013-06-16 17:50:00,
2013-06-16 20:00:00,80.4,64.3,29.99,North,1,0.0,0.0,58,0.00,BKN,SKC,0.00,WeatherDisplay:10.37,2013-06-16 18:00:00,
2013-06-16 20:10:00,79.9,64.8,30.00,North,1,0.0,0.0,60,0.00,BKN,SKC,0.00,WeatherDisplay:10.37,2013-06-16 18:10:00,
2013-06-16 20:20:00,79.1,65.0,29.99,North,1,0.0,0.0,62,0.00,BKN,SKC,0.00,WeatherDisplay:10.37,2013-06-16 18:20:00,
2013-06-16 20:30:00,78.4,64.8,30.00,North,1,0.0,0.0,63,0.00,BKN,SKC,0.00,WeatherDisplay:10.37,2013-06-16 18:30:00,
2013-06-16 20:40:00,77.8,64.2,30.00,North,1,0.0,0.0,63,0.00,BKN,SKC,0.00,WeatherDisplay:10.37,2013-06-16 18:40:00,
2013-06-16 20:50:00,77.1,64.0,30.00,North,1,0.0,0.0,64,0.00,BKN,SKC,0.00,WeatherDisplay:10.37,2013-06-16 18:50:00,
2013-06-16 21:00:00,76.3,64.1,30.00,North,1,0.0,0.0,66,0.00,BKN,SKC,0.00,WeatherDisplay:10.37,2013-06-16 19:00:00,
2013-06-16 21:10:00,75.6,64.3,30.01,North,1,0.0,0.0,68,0.00,BKN,SKC,0.00,WeatherDisplay:10.37,2013-06-16 19:10:00,
2013-06-16 21:20:00,75.0,64.6,30.01,North,1,0.0,0.0,70,0.00,BKN,SKC,0.00,WeatherDisplay:10.37,2013-06-16 19:20:00,
2013-06-16 21:30:00,74.5,64.5,30.01,North,1,0.0,0.0,71,0.00,BKN,SKC,0.00,WeatherDisplay:10.37,2013-06-16 19:30:00,
2013-06-16 21:40:00,74.1,64.5,30.01,North,1,0.0,0.0,72,0.00,BKN,SKC,0.00,WeatherDisplay:10.37,2013-06-16 19:40:00,
2013-06-16 21:50:00,73.6,64.4,30.01,North,1,0.0,0.0,73,0.00,BKN,SKC,0.00,WeatherDisplay:10.37,2013-06-16 19:50:00,
2013-06-16 22:00:00,73.4,64.6,30.01,North,1,0.0,0.0,74,0.00,BKN,SKC,0.00,WeatherDisplay:10.37,2013-06-16 20:00:00,
2013-06-16 22:10:00,73.2,64.4,30.01,North,1,0.0,0.0,74,0.00,BKN,SKC,0.00,WeatherDisplay:10.37,2013-06-16 20:10:00,
2013-06-16 22:20:00,73.0,64.3,30.02,North,1,0.0,0.0,74,0.00,BKN,SKC,0.00,WeatherDisplay:10.37,2013-06-16 20:20:00,
2013-06-16 22:30:00,72.7,63.5,30.02,North,1,0.0,0.0,73,0.00,BKN,SKC,0.00,WeatherDisplay:10.37,2013-06-16 20:30:00,
2013-06-16 22:40:00,72.4,63.2,30.02,North,1,0.0,0.0,73,0.00,BKN,SKC,0.00,WeatherDisplay:10.37,2013-06-16 20:40:00,
2013-06-16 22:50:00,72.1,63.4,30.02,North,1,0.0,0.0,74,0.00,BKN,SKC,0.00,WeatherDisplay:10.37,2013-06-16 20:50:00,
2013-06-16 23:00:00,71.8,63.0,30.02,North,1,0.0,0.0,74,0.00,BKN,SKC,0.00,WeatherDisplay:10.37,2013-06-16 21:00:00,
2013-06-16 23:10:00,71.8,63.0,30.03,North,1,0.0,0.0,74,0.00,BKN,SKC,0.00,WeatherDisplay:10.37,2013-06-16 21:10:00,
2013-06-16 23:20:00,71.7,62.9,30.03,North,1,0.0,0.0,74,0.00,BKN,SKC,0.00,WeatherDisplay:10.37,2013-06-16 21:20:00,
2013-06-16 23:30:00,71.4,63.1,30.03,North,1,0.0,0.0,75,0.00,BKN,SKC,0.00,WeatherDisplay:10.37,2013-06-16 21:30:00,
2013-06-16 23:40:00,71.2,62.9,30.03,North,1,0.0,0.0,75,0.00,BKN,SKC,0.00,WeatherDisplay:10.37,2013-06-16 21:40:00,
2013-06-16 23:50:00,71.1,63.1,30.03,North,1,0.0,0.0,76,0.00,BKN,SKC,0.00,WeatherDisplay:10.37,2013-06-16 21:50:00,